Retour au catalogue

STARLINK-36419

ActifCommunicationsSSO
NORAD 67584·PAYLOAD·🇺🇸 United States

Lancé Jan 25, 2026 depuis Vandenberg Space Force Base

Loading…

Prochains Passages (prochaines 24 heures)

TLE

FraisSource: CelesTrak SupGP

Époque: Sep 14, 2026, 22:56 UTC

1 67584C 26016Z   26257.95604167  .00009453  00000+0  29351-3 0  2575
2 67584  97.2844 316.7408 0001069  93.1933 264.4518 15.33428571    19

Suivez STARLINK-36419 en temps réel avec AllMySat

Download on the App Store